EW7003 Weather Reports


time (UTC)temp
F
wind
direction
speed
knots
gust
knots
rain 1hr
in
rain 24hr
in
rain mn
in
humidity
%
barometer
mb
20260507153727 61 288 13.0 17.4 0.00 0.33 0.00 46 1013.7
20260507153224 61 277 13.9 16.5 0.00 0.33 0.00 46 1013.8
20260507152721 60 271 13.9 16.5 0.00 0.33 0.00 46 1013.9
20260507152218 60 265 13.0 17.4 0.00 0.33 0.00 47 1013.8
20260507151719 59 281 12.2 17.4 0.00 0.36 0.00 50 1013.7
20260507151215 58 269 13.0 15.6 0.00 0.36 0.00 51 1013.9
20260507150731 57 269 12.2 14.8 0.00 0.36 0.00 53 1013.8
20260507150227 57 277 11.3 14.8 0.00 0.36 0.00 55 1013.8
20260507145723 56 269 11.3 14.8 0.00 0.36 0.00 53 1013.8
20260507145220 55 260 11.3 14.8 0.00 0.36 0.00 54 1013.8
20260507144716 55 277 13.0 15.6 0.00 0.36 0.00 55 1013.8
20260507144212 54 263 11.3 15.6 0.00 0.36 0.00 56 1013.9
20260507143713 54 265 10.4 13.9 0.00 0.36 0.00 57 1013.9
20260507143230 53 263 11.3 13.9 0.00 0.36 0.00 56 1013.9
20260507142727 53 265 11.3 14.8 0.00 0.36 0.00 56 1013.9
20260507142223 53 265 11.3 13.9 0.00 0.36 0.00 56 1013.9
20260507141720 52 264 10.4 14.8 0.00 0.38 0.00 57 1013.9
20260507141237 51 263 12.2 14.8 0.00 0.38 0.00 55 1013.9
20260507140713 51 265 9.6 13.9 0.00 0.38 0.00 58 1013.8
20260507140214 50 265 11.3 13.9 0.00 0.38 0.00 59 1013.8
20260507135711 49 264 11.3 13.9 0.00 0.38 0.00 62 1013.8
20260507135228 48 279 9.6 12.2 0.00 0.38 0.00 65 1013.7
20260507134725 47 270 9.6 12.2 0.00 0.38 0.00 67 1013.7
20260507134241 46 273 9.6 12.2 0.00 0.38 0.00 68 1013.7
20260507133716 45 266 8.7 12.2 0.00 0.38 0.00 69 1013.7
20260507133213 44 258 9.6 13.0 0.00 0.38 0.00 70 1013.7
20260507132730 43 262 9.6 13.0 0.00 0.38 0.00 71 1013.7
20260507132247 43 272 9.6 12.2 0.00 0.38 0.00 71 1013.6
20260507131747 42 263 10.4 12.2 0.00 0.38 0.00 71 1013.6
20260507131223 41 269 9.6 12.2 0.00 0.38 0.00 73 1013.5
20260507130720 41 276 8.7 11.3 0.00 0.38 0.00 74 1013.5
20260507130216 40 261 9.6 11.3 0.00 0.38 0.00 75 1013.4
20260507125713 39 260 8.7 10.4 0.00 0.38 0.00 76 1013.4
20260507125229 38 261 8.7 12.2 0.00 0.38 0.00 76 1013.3
20260507124726 38 259 8.7 12.2 0.00 0.38 0.00 77 1013.3
20260507124226 37 245 9.6 12.2 0.00 0.38 0.00 77 1013.2
20260507123722 37 252 9.6 11.3 0.00 0.38 0.00 78 1013.2
20260507123219 36 254 9.6 12.2 0.00 0.38 0.00 79 1013.2
20260507122716 36 249 10.4 12.2 0.00 0.38 0.00 80 1013.2
20260507122212 35 257 9.6 12.2 0.00 0.38 0.00 80 1013.0
20260507121729 35 243 9.6 13.9 0.00 0.38 0.00 81 1012.9
20260507121225 35 248 10.4 13.0 0.00 0.38 0.00 81 1012.9
20260507120723 35 248 8.7 9.6 0.00 0.38 0.00 82 1012.8
20260507120223 34 235 7.0 9.6 0.00 0.38 0.00 81 1012.8
20260507115740 34 216 7.0 10.4 0.00 0.38 0.00 82 1012.8
20260507115236 35 253 7.0 12.2 0.00 0.38 0.00 82 1012.8
20260507114711 35 248 8.7 13.0 0.00 0.38 0.00 81 1012.8
20260507114229 35 255 9.6 12.2 0.00 0.38 0.00 81 1012.8
20260507113746 35 245 8.7 11.3 0.00 0.38 0.00 81 1012.9
20260507113221 35 251 8.7 12.2 0.00 0.38 0.00 81 1012.9
20260507112717 35 254 9.6 12.2 0.00 0.38 0.00 81 1012.9
20260507112234 35 249 10.4 13.0 0.00 0.38 0.00 81 1013.0
20260507111750 35 256 10.4 13.0 0.00 0.38 0.00 81 1013.0
20260507111230 35 240 10.4 13.0 0.00 0.38 0.00 82 1013.1
20260507110727 35 251 10.4 13.0 0.00 0.38 0.00 82 1013.2
20260507110224 35 254 9.6 13.0 0.00 0.38 0.00 83 1013.2
20260507105720 35 250 10.4 13.0 0.00 0.38 0.00 83 1013.4
20260507105218 34 245 10.4 12.2 0.00 0.38 0.00 84 1013.4
20260507104735 34 250 10.4 12.2 0.00 0.38 0.00 84 1013.5
20260507104229 34 252 9.6 12.2 0.00 0.38 0.00 84 1013.5
20260507103711 35 255 8.7 12.2 0.00 0.38 0.00 83 1013.6
20260507103226 35 256 9.6 12.2 0.00 0.38 0.00 83 1013.7
20260507102744 35 253 8.7 13.0 0.00 0.38 0.00 83 1013.5
20260507102240 35 244 9.6 13.0 0.00 0.38 0.00 83 1013.6
20260507101736 35 249 10.4 13.9 0.00 0.38 0.00 83 1013.7
20260507101211 35 250 10.4 13.9 0.00 0.38 0.00 83 1013.6
20260507100728 35 243 9.6 13.0 0.00 0.38 0.00 83 1013.7
20260507100225 35 240 8.7 13.0 0.00 0.38 0.00 83 1013.7
20260507095742 35 251 8.7 13.0 0.00 0.38 0.00 83 1013.7
20260507095218 35 252 8.7 13.0 0.00 0.38 0.00 84 1013.7
20260507094718 35 258 8.7 13.0 0.00 0.38 0.00 84 1013.8
20260507094215 35 254 7.8 13.0 0.00 0.38 0.00 84 1013.8
20260507093732 35 244 7.8 13.0 0.00 0.38 0.00 85 1013.9
20260507093248 35 256 9.6 13.9 0.00 0.38 0.00 85 1013.9
20260507092724 35 254 9.6 13.0 0.00 0.38 0.00 85 1013.9
20260507092241 35 248 8.7 12.2 0.00 0.38 0.00 85 1013.9
20260507091717 35 234 7.0 12.2 0.00 0.38 0.38 86 1013.9
20260507091214 35 246 7.8 12.2 0.00 0.38 0.38 86 1013.9
20260507090751 35 261 7.0 9.6 0.00 0.38 0.38 86 1014.0
20260507090246 35 222 7.0 9.6 0.00 0.38 0.38 86 1014.1
20260507085726 35 244 7.0 12.2 0.00 0.38 0.38 87 1014.1
20260507085223 35 217 7.8 12.2 0.00 0.38 0.38 87 1014.1
20260507084739 35 209 7.0 10.4 0.00 0.38 0.38 87 1014.2
20260507084215 35 237 7.8 11.3 0.00 0.38 0.38 87 1014.2
20260507083712 35 242 8.7 13.9 0.00 0.38 0.38 87 1014.3
20260507083229 35 229 8.7 13.9 0.00 0.38 0.38 87 1014.4
20260507082724 35 238 9.6 13.0 0.00 0.38 0.38 87 1014.3
20260507082224 35 216 8.7 13.0 0.00 0.38 0.38 87 1014.3
20260507081742 35 234 8.7 14.8 0.00 0.38 0.38 87 1014.3
20260507081218 35 247 9.6 13.9 0.00 0.38 0.38 86 1014.4
20260507080715 36 222 7.8 12.2 0.00 0.38 0.38 86 1014.4
20260507080211 36 236 8.7 13.9 0.00 0.38 0.38 86 1014.5
20260507075728 36 240 8.7 13.0 0.00 0.38 0.38 86 1014.6
20260507075224 36 221 7.0 12.2 0.00 0.38 0.38 86 1014.6
20260507074720 36 235 8.7 12.2 0.00 0.38 0.38 85 1014.8
20260507074222 36 248 7.8 13.9 0.00 0.38 0.38 85 1014.9
20260507073719 36 255 8.7 15.6 0.00 0.38 0.38 85 1014.9
20260507073236 36 196 8.7 14.8 0.00 0.38 0.38 85 1015.1
20260507072712 36 242 8.7 14.8 0.00 0.38 0.38 85 1015.1
20260507072228 36 219 9.6 13.9 0.00 0.38 0.38 85 1015.1
20260507071725 36 225 10.4 13.9 0.00 0.38 0.38 85 1015.2
20260507071221 36 256 8.7 14.8 0.00 0.38 0.38 85 1015.2
20260507070722 37 236 9.6 14.8 0.00 0.38 0.38 85 1015.4
20260507070219 36 257 9.6 15.6 0.00 0.38 0.38 86 1015.4
20260507065737 36 250 9.6 15.6 0.00 0.38 0.38 86 1015.4
20260507065212 36 239 10.4 15.6 0.00 0.38 0.38 86 1015.4
20260507064729 36 275 10.4 15.6 0.00 0.38 0.38 87 1015.3
20260507064227 36 246 11.3 15.6 0.00 0.38 0.38 87 1015.3
20260507063724 36 229 9.6 15.6 0.00 0.38 0.38 87 1015.4
20260507063241 36 254 8.7 13.9 0.00 0.38 0.38 88 1015.4
20260507062720 36 227 9.6 13.0 0.00 0.38 0.38 88 1015.5
20260507062217 36 256 8.7 13.9 0.00 0.38 0.38 88 1015.5
20260507061714 36 250 8.7 13.9 0.00 0.38 0.38 88 1015.5
20260507061211 35 267 7.0 13.9 0.00 0.38 0.38 88 1015.5
20260507060727 35 219 8.7 13.9 0.00 0.38 0.38 88 1015.6
20260507060224 35 244 7.8 13.0 0.00 0.38 0.38 87 1015.7
20260507055722 35 205 7.0 13.0 0.00 0.38 0.38 87 1015.7
20260507055222 35 231 8.7 13.0 0.00 0.38 0.38 88 1015.7
20260507054719 34 225 7.0 13.0 0.00 0.38 0.38 88 1015.8
20260507054217 34 215 7.0 10.4 0.00 0.38 0.38 88 1015.9
20260507053712 34 224 6.1 10.4 0.00 0.38 0.38 88 1016.0
20260507053229 34 244 6.1 9.6 0.00 0.38 0.38 88 1016.0
20260507052726 34 238 6.1 9.6 0.00 0.38 0.38 88 1016.1
20260507052223 33 231 4.3 7.8 0.00 0.38 0.38 88 1016.2
20260507051725 33 232 5.2 9.6 0.00 0.38 0.38 88 1016.2
20260507051221 33 242 5.2 9.6 0.00 0.38 0.38 88 1016.2
20260507050718 33 215 5.2 7.8 0.00 0.38 0.38 88 1016.2
20260507050214 33 236 4.3 7.8 0.00 0.38 0.38 88 1016.3
20260507045751 33 245 4.3 7.8 0.00 0.38 0.38 88 1016.4
20260507045246 33 250 5.2 7.8 0.00 0.38 0.38 88 1016.5
20260507044722 33 255 5.2 7.8 0.00 0.38 0.38 88 1016.5
20260507044217 33 257 4.3 7.8 0.00 0.38 0.38 87 1016.5
20260507043714 33 250 3.5 7.8 0.00 0.38 0.38 86 1016.5
20260507043214 33 257 4.3 7.0 0.00 0.38 0.38 87 1016.5
20260507042731 34 242 4.3 7.0 0.00 0.38 0.38 87 1016.6
20260507042242 34 224 4.3 7.8 0.00 0.38 0.38 87 1016.7
20260507041740 34 254 4.3 8.7 0.00 0.38 0.38 87 1016.7
20260507041216 34 257 7.0 8.7 0.00 0.38 0.38 87 1016.7
20260507040731 34 239 5.2 9.6 0.00 0.38 0.38 87 1016.8
20260507040228 34 252 6.1 9.6 0.00 0.38 0.38 87 1016.8
20260507035725 34 250 6.1 8.7 0.00 0.38 0.38 86 1016.9
20260507035221 34 252 5.2 8.7 0.00 0.38 0.38 86 1016.9
20260507034722 34 250 4.3 10.4 0.00 0.38 0.38 86 1016.9
20260507034219 34 236 6.1 10.4 0.00 0.38 0.38 86 1016.9
20260507033737 35 258 4.3 7.8 0.00 0.38 0.38 85 1016.9
20260507033212 35 238 5.2 7.0 0.00 0.38 0.38 85 1017.0
20260507032749 35 249 4.3 8.7 0.00 0.38 0.38 85 1016.9
20260507032225 35 237 4.3 7.0 0.00 0.38 0.38 85 1016.9
20260507031722 35 252 4.3 7.0 0.00 0.38 0.38 85 1016.8
20260507031219 35 249 4.3 7.8 0.00 0.38 0.38 85 1016.7
20260507030719 36 252 5.2 7.8 0.00 0.38 0.38 84 1016.7
20260507030217 36 234 4.3 7.8 0.00 0.38 0.38 84 1016.6
20260507025714 36 229 3.5 6.1 0.00 0.38 0.38 83 1016.6
20260507025230 36 239 3.5 7.0 0.00 0.38 0.38 83 1016.7
20260507024746 36 234 3.5 7.0 0.00 0.38 0.38 83 1016.5
20260507024222 37 246 3.5 7.8 0.00 0.38 0.38 82 1016.5
20260507023739 37 225 3.5 7.8 0.00 0.38 0.38 82 1016.5
20260507023213 37 216 4.3 7.0 0.00 0.38 0.38 81 1016.6
20260507022714 38 240 5.2 7.0 0.00 0.38 0.38 81 1016.6
20260507022211 38 225 4.3 7.0 0.00 0.38 0.38 81 1016.7
20260507021728 39 258 3.5 5.2 0.00 0.38 0.38 80 1016.8
20260507021225 39 227 3.5 7.0 0.00 0.38 0.38 80 1016.7
20260507020743 39 244 3.5 6.1 0.00 0.38 0.38 80 1016.6
20260507020219 40 232 3.5 6.1 0.00 0.38 0.38 79 1016.6
20260507015714 40 240 3.5 6.1 0.00 0.38 0.38 79 1016.6
20260507015211 41 229 4.3 7.0 0.00 0.38 0.38 78 1016.6
20260507014712 41 227 3.5 7.0 0.00 0.38 0.38 78 1016.5
20260507014228 41 254 4.3 7.0 0.00 0.38 0.38 78 1016.5
20260507013745 42 246 3.5 6.1 0.00 0.38 0.38 77 1016.5
20260507013221 42 229 3.5 6.1 0.00 0.38 0.38 77 1016.5
20260507012718 42 221 3.5 7.0 0.00 0.38 0.38 77 1016.5
20260507012214 42 247 3.5 7.0 0.00 0.38 0.38 77 1016.5
20260507011711 42 231 4.3 6.1 0.00 0.42 0.38 76 1016.6
20260507011212 43 244 3.5 7.0 0.00 0.42 0.38 75 1016.5
20260507010750 43 229 3.5 7.0 0.00 0.42 0.38 74 1016.5
20260507010245 44 229 4.3 9.6 0.00 0.42 0.38 73 1016.5
20260507005721 44 250 6.1 9.6 0.00 0.42 0.38 73 1016.7
20260507005218 45 240 3.5 6.1 0.00 0.42 0.38 74 1016.6
20260507004714 45 249 3.5 7.8 0.00 0.42 0.38 74 1016.6
20260507004211 45 213 3.5 7.8 0.00 0.42 0.38 74 1016.5
20260507003728 45 230 4.3 7.0 0.00 0.42 0.38 74 1016.5
20260507003225 45 221 5.2 7.8 0.00 0.42 0.38 73 1016.4
20260507002725 45 273 5.2 7.8 0.00 0.42 0.38 74 1016.5
20260507002222 44 268 6.1 8.7 0.00 0.42 0.38 75 1016.5
20260507001718 44 256 6.1 7.8 0.00 0.45 0.38 77 1016.5
20260507001214 44 256 2.6 5.2 0.00 0.45 0.38 77 1016.5
20260507000711 44 229 2.6 5.2 0.00 0.45 0.38 76 1016.5
20260507000228 45 234 3.5 6.1 0.00 0.45 0.38 76 1016.5
20260506235744 45 259 3.5 7.8 0.00 0.45 0.38 74 1016.5
20260506235224 45 270 4.3 7.8 0.00 0.45 0.38 76 1016.6
20260506234721 44 239 2.6 7.0 0.00 0.45 0.38 77 1016.6
20260506234218 44 263 4.3 7.0 0.00 0.45 0.38 79 1016.6
20260506233715 44 242 2.6 6.1 0.00 0.45 0.38 80 1016.7
20260506233212 43 232 2.6 6.1 0.00 0.45 0.38 81 1016.8
20260506232729 43 252 1.7 6.1 0.00 0.45 0.38 83 1016.8
20260506232226 42 257 0.9 3.5 0.00 0.45 0.38 82 1016.8
20260506231743 42 179 0.0 2.6 0.00 0.49 0.38 83 1016.8
20260506231243 42 117 0.9 2.6 0.00 0.49 0.38 84 1016.8
20260506230739 42 114 0.0 2.6 0.00 0.49 0.38 85 1016.8
20260506230235 41 132 0.9 1.7 0.00 0.49 0.38 87 1016.8
20260506225711 40 57 0.0 0.0 0.00 0.49 0.38 85 1016.8
20260506225248 40 57 0.0 0.0 0.00 0.49 0.38 85 1016.8
20260506224724 40 57 0.0 0.9 0.00 0.49 0.38 85 1016.8
20260506224221 40 57 0.0 1.7 0.00 0.49 0.38 85 1016.8
20260506223718 40 57 0.9 1.7 0.00 0.49 0.38 85 1016.7
20260506223215 40 57 0.9 2.6 0.00 0.49 0.38 85 1016.8
20260506222737 40 57 1.7 4.3 0.00 0.49 0.38 86 1016.8
20260506222232 40 61 3.5 4.3 0.00 0.49 0.38 86 1016.8
20260506221728 41 360 3.5 5.2 0.00 0.54 0.38 85 1016.8
20260506221225 41 76 4.3 5.2 0.00 0.54 0.38 84 1016.8
20260506220722 42 72 4.3 5.2 0.00 0.54 0.38 83 1016.8
20260506220219 42 327 0.9 4.3 0.00 0.54 0.38 86 1017.0
20260506215736 41 220 0.9 4.3 0.00 0.54 0.38 85 1017.0
20260506215212 41 288 2.6 6.1 0.00 0.54 0.38 87 1017.1
20260506214749 40 229 2.6 6.1 0.00 0.54 0.38 87 1017.0
20260506214229 40 234 3.5 6.1 0.00 0.54 0.38 89 1017.1
20260506213726 40 254 2.6 7.8 0.00 0.54 0.38 89 1017.2
20260506213222 39 261 6.1 7.8 0.01 0.54 0.38 89 1017.2
20260506212719 39 275 4.3 7.0 0.01 0.54 0.38 89 1017.3
20260506212216 39 286 3.5 7.0 0.01 0.54 0.38 90 1017.3
20260506211713 39 263 3.5 7.0 0.01 0.54 0.38 90 1017.3
20260506211250 39 317 3.5 7.0 0.01 0.54 0.38 90 1017.3
20260506210725 38 334 1.7 3.5 0.01 0.54 0.38 91 1017.5
20260506210226 38 312 0.9 3.5 0.01 0.54 0.38 91 1017.5
20260506205723 37 53 1.7 3.5 0.01 0.54 0.38 91 1017.4
20260506205220 37 44 2.6 3.5 0.02 0.54 0.38 90 1017.5
20260506204716 37 43 2.6 3.5 0.02 0.54 0.38 90 1017.7
20260506204213 38 46 1.7 3.5 0.02 0.54 0.38 90 1017.8
20260506203730 37 327 1.7 4.3 0.01 0.53 0.37 91 1017.9
20260506203227 37 355 1.7 5.2 0.01 0.53 0.37 91 1017.9
20260506202728 37 323 3.5 5.2 0.01 0.53 0.37 90 1018.0
20260506202245 37 360 3.5 5.2 0.01 0.53 0.37 90 1018.0
20260506201721 37 306 3.5 5.2 0.01 0.53 0.37 90 1018.0
20260506201218 37 286 4.3 7.0 0.01 0.53 0.37 90 1018.0
20260506200714 37 276 4.3 7.0 0.01 0.53 0.37 90 1018.0
20260506200211 37 285 6.1 7.0 0.01 0.53 0.37 89 1018.0
20260506195728 38 294 4.3 7.8 0.00 0.52 0.36 89 1018.0
20260506195225 38 280 3.5 7.0 0.00 0.52 0.36 88 1018.0
20260506194746 38 313 3.5 4.3 0.00 0.52 0.36 88 1018.0
20260506194222 39 281 1.7 3.5 0.00 0.52 0.36 88 1018.0
20260506193719 39 306 0.0 1.7 0.00 0.52 0.36 89 1017.9
20260506193216 39 336 0.0 0.9 0.00 0.52 0.36 90 1017.9
20260506192713 38 28 0.0 0.9 0.01 0.52 0.36 90 1018.0
20260506192230 37 28 0.0 1.7 0.01 0.52 0.36 90 1017.9
20260506191747 37 29 0.9 2.6 0.01 0.52 0.36 89 1017.9
20260506191223 38 18 0.9 2.6 0.01 0.52 0.36 90 1017.9
20260506190744 37 310 0.9 3.5 0.02 0.52 0.36 90 1018.0
20260506190240 37 313 2.6 3.5 0.02 0.52 0.36 89 1018.0
20260506185735 37 17 1.7 2.6 0.03 0.52 0.36 89 1017.9
20260506185211 38 25 1.7 2.6 0.04 0.52 0.36 89 1018.0
20260506184747 39 349 1.7 2.6 0.04 0.52 0.36 90 1017.9
20260506184223 38 41 0.0 0.9 0.05 0.52 0.36 92 1017.8
20260506183719 37 41 0.0 1.7 0.06 0.52 0.36 91 1017.7
20260506183236 37 41 0.9 1.7 0.06 0.52 0.36 91 1017.7
20260506182711 37 41 0.9 1.7 0.06 0.51 0.35 92 1017.8
20260506182229 37 41 0.0 0.9 0.07 0.51 0.35 92 1017.9
20260506181728 37 41 0.0 1.7 0.07 0.52 0.35 92 1018.0
20260506181225 36 41 0.9 1.7 0.07 0.51 0.34 92 1018.1
20260506180722 36 41 1.7 1.7 0.08 0.51 0.34 92 1018.1
20260506180219 36 41 0.9 1.7 0.09 0.51 0.34 93 1018.1
20260506175716 36 40 0.9 2.6 0.09 0.50 0.33 93 1018.1
20260506175213 36 42 1.7 2.6 0.10 0.49 0.32 93 1018.1
20260506174730 36 42 1.7 3.5 0.10 0.49 0.32 93 1018.0
20260506174210 36 35 2.6 3.5 0.11 0.48 0.31 93 1018.0
20260506173727 36 34 2.6 3.5 0.10 0.47 0.30 93 1018.0
20260506173223 36 28 2.6 3.5 0.12 0.47 0.30 93 1018.1
20260506172721 35 32 2.6 3.5 0.12 0.46 0.29 93 1018.0
20260506172218 35 22 2.6 4.3 0.12 0.45 0.28 93 1018.0
20260506171714 35 34 2.6 4.3 0.13 0.45 0.28 93 1018.0
20260506171211 35 28 2.6 4.3 0.13 0.43 0.27 93 1018.0
20260506170711 35 29 3.5 4.3 0.14 0.43 0.26 93 1018.0
20260506170228 35 23 3.5 4.3 0.14 0.42 0.25 93 1017.8
20260506165725 35 30 3.5 5.2 0.14 0.41 0.24 93 1017.8
20260506165222 35 25 4.3 7.0 0.13 0.39 0.22 93 1017.9
20260506164718 36 15 3.5 7.0 0.14 0.39 0.22 94 1017.9
20260506164215 36 335 4.3 7.8 0.13 0.37 0.20 94 1017.9
20260506163711 35 355 4.3 7.8 0.13 0.36 0.19 94 1017.7
20260506163212 35 24 3.5 7.0 0.13 0.35 0.18 94 1017.5
20260506162749 35 22 4.3 7.0 0.12 0.34 0.17 94 1017.5
20260506162245 35 23 4.3 5.2 0.11 0.33 0.16 94 1017.3
20260506161721 35 5 3.5 7.0 0.11 0.34 0.15 94 1017.3
20260506161218 35 23 3.5 7.0 0.09 0.32 0.13 94 1017.3
20260506160715 35 350 3.5 7.0 0.08 0.31 0.12 94 1017.2
20260506160212 35 5 4.3 7.0 0.07 0.30 0.11 94 1017.2
20260506155749 34 20 3.5 5.2 0.06 0.29 0.10 94 1017.2
20260506155224 34 25 3.5 7.0 0.05 0.28 0.09 94 1017.2
20260506154726 35 350 4.3 7.0 0.05 0.27 0.08 94 1017.2
20260506154223 35 24 3.5 7.0 0.04 0.26 0.07 94 1017.3